Temp
14 14 14 14 14 13 13 13 13 13 12 12 12 12 12 12 12 12 11 11 11 11 11 10 10 10 10 9 9 9 9 9 9 9 8 8 8 7 7 6 6 6 6 6 7 7 7 6 6 6 5 5 5 4 4 4 5 5 5 5 5 5 5 5 5 5 5 5 5
14 14 14 14 13 13 13 13 13 12 12 12 12 12 12 12 12 11 11 11 11 11 11 10 10 9 9 9 9 9 9 9 9 8 8 8 8 7 7 7 6 6 6 7 7 7 6 6 6 6 5 5 5 4 4 5 5 5 5 5 5 5 5 5 5 5 5 5 5
14 14 13 13 13 13 13 12 12 12 12 12 12 12 12 11 11 11 11 11 11 10 10 10 9 9 9 9 9 9 9 8 8 8 8 8 8 7 7 7 7 7 7 7 6 6 6 6 5 5 5 5 5 5 5 5 5 5 5 5 5 5 5 5 5 5 5 5 5
14 13 13 13 13 13 12 12 12 12 12 11 11 11 11 11 11 11 11 11 10 10 10 9 9 9 8 8 8 8 8 8 8 8 7 7 7 7 6 6 6 6 6 6 6 6 6 5 5 5 5 5 5 5 5 5 5 5 5 5 5 5 5 5 5 4 4 4 4
13 13 13 13 13 12 12 12 12 12 11 11 11 11 11 11 11 11 11 10 10 10 9 9 9 8 8 8 8 8 8 7 7 7 7 7 7 7 6 6 6 6 6 6 6 6 5 5 5 5 5 5 5 5 5 5 5 5 5 5 5 5 4 4 4 4 4 4 4
13 13 13 12 12 12 12 12 12 11 11 11 11 11 11 10 10 10 10 10 10 9 9 9 8 8 8 8 8 8 7 7 7 7 7 7 7 7 6 6 6 6 6 6 6 5 5 5 5 5 5 5 5 5 5 5 5 5 5 5 4 4 4 4 4 4 4 4 3
13 12 12 12 12 12 12 12 11 11 11 11 11 11 10 10 10 10 10 9 9 9 9 9 8 8 8 8 8 8 8 7 7 7 7 7 7 7 6 6 6 6 6 6 6 5 5 5 5 5 5 5 5 5 5 5 5 4 4 4 4 4 4 4 4 3 3 3 3
12 12 12 12 12 12 12 11 11 11 11 11 10 10 10 10 10 10 9 9 9 9 9 8 8 8 8 8 8 8 8 7 7 7 7 7 7 6 6 6 6 6 6 6 5 5 5 5 5 5 5 5 5 5 4 4 4 4 4 4 4 3 3 3 3 3 3 3 3
12 12 12 12 12 12 11 11 11 11 10 10 10 10 10 9 9 9 9 9 9 9 8 8 8 8 8 8 8 7 7 7 7 7 7 7 6 6 6 6 6 6 6 5 5 5 5 5 5 5 5 4 4 4 4 4 4 3 3 3 3 3 3 3 3 3 3 3 2
12 12 12 12 12 11 11 11 11 10 10 10 10 10 9 9 9 9 9 9 8 8 8 8 8 8 7 7 7 7 7 7 7 7 7 6 6 6 6 6 6 6 5 5 5 5 5 5 5 5 4 4 4 4 4 4 3 3 3 3 3 3 3 3 3 2 2 2 2
12 12 12 12 11 11 11 11 10 10 10 10 10 9 9 9 9 9 8 8 8 8 8 8 7 7 7 7 7 7 7 7 6 6 6 6 6 6 6 6 6 6 5 5 5 5 5 5 5 4 4 4 4 4 3 3 3 3 3 3 3 3 3 2 2 2 2 2 2
12 12 12 11 11 11 11 10 10 10 10 10 9 9 9 9 8 8 8 8 8 8 8 7 7 7 7 7 7 6 6 6 6 6 6 6 6 6 6 6 6 5 5 5 5 5 5 5 4 4 4 4 4 3 3 3 3 3 3 3 3 2 2 2 2 2 2 2 2
12 12 12 11 11 11 10 10 10 10 10 9 9 9 9 8 8 8 8 8 8 8 7 7 7 7 7 7 6 6 6 6 6 6 6 6 6 6 6 6 5 5 5 5 5 5 4 4 4 4 4 4 3 3 3 3 3 3 3 2 2 2 2 2 2 2 2 2 1
12 12 11 11 11 11 10 10 10 10 10 9 9 9 9 8 8 8 8 8 8 7 7 7 7 7 7 6 6 6 6 6 6 6 6 6 6 6 5 5 5 5 5 5 4 4 4 4 4 4 4 3 3 3 3 3 3 2 2 2 2 2 2 2 2 2 1 1 1
12 11 11 11 11 10 10 10 10 10 10 9 9 9 9 8 8 8 8 7 7 7 7 7 7 7 7 6 6 6 6 6 6 6 6 6 5 5 5 5 5 5 4 4 4 4 4 4 4 3 3 3 3 3 3 3 2 2 2 2 2 2 2 2 2 1 1 1 1
11 11 11 11 11 10 10 10 10 10 10 10 9 9 9 8 8 8 7 7 7 7 7 7 7 7 7 6 6 6 6 6 6 6 5 5 5 5 5 5 4 4 4 4 4 4 3 3 3 3 3 3 3 3 2 2 2 2 2 2 2 2 1 1 1 1 1 1 1
11 11 11 11 10 10 10 10 10 10 10 10 9 9 8 8 8 7 7 7 7 7 7 7 7 7 6 6 6 6 6 6 5 5 5 5 5 5 4 4 4 4 4 4 3 3 3 3 3 3 3 2 2 2 2 2 2 2 2 2 2 1 1 1 1 1 1 1 1
11 11 11 10 10 10 10 10 10 10 9 9 9 8 8 8 8 7 7 7 7 6 6 6 6 6 6 6 6 5 5 5 5 5 5 5 4 4 4 4 4 4 3 3 3 3 3 3 3 2 2 2 2 2 2 2 2 2 2 2 1 1 1 1 1 1 1 1 0
11 10 10 10 10 10 10 10 10 9 9 9 8 8 8 8 7 7 7 6 6 6 6 6 6 6 6 6 6 5 5 5 5 5 4 4 4 4 4 4 3 3 3 3 3 3 2 2 2 2 2 2 2 2 2 2 2 2 1 1 1 1 1 1 1 1 1 0 0
10 10 10 10 10 10 9 9 9 9 8 8 8 8 7 7 7 6 6 6 6 6 6 6 6 6 6 6 5 5 5 5 4 4 4 4 4 4 3 3 3 3 3 2 2 2 2 2 2 2 2 2 2 2 2 2 1 1 1 1 1 1 1 1 1 1 0 0 0
10 10 10 10 9 9 9 9 9 8 8 7 7 7 7 6 6 6 6 6 6 6 6 6 6 6 6 5 5 4 4 4 4 4 4 4 3 3 3 3 2 2 2 2 2 2 2 2 2 2 2 2 2 1 1 1 1 1 1 1 1 1 1 1 0 0 0 0 -0
10 9 9 9 9 9 9 8 8 8 7 7 6 6 6 6 6 6 6 6 6 6 6 6 5 5 5 4 4 4 4 4 4 3 3 3 3 3 2 2 2 2 2 2 2 2 2 2 1 1 1 1 1 1 1 1 1 1 1 1 1 0 0 0 0 -0 -0 -0 -0
9 9 9 9 8 8 8 8 8 7 7 6 6 6 6 6 6 6 6 6 6 5 5 5 5 4 4 4 3 3 3 3 3 3 3 3 2 2 2 2 2 2 2 2 2 1 1 1 1 1 1 1 1 1 1 1 1 1 0 0 0 0 -0 -0 -0 -0 -1 -1 -1
9 9 8 8 8 8 8 7 7 7 6 6 6 6 6 6 6 6 6 5 5 5 5 4 4 4 3 3 3 3 3 3 3 3 3 2 2 2 2 2 2 2 2 2 1 1 1 1 1 1 1 1 1 1 1 0 0 0 -0 -0 -0 -0 -1 -1 -1 -1 -1 -1 -1
8 8 8 8 7 7 7 7 7 7 6 6 6 6 6 6 6 6 5 5 5 5 4 4 4 3 3 3 3 3 2 2 2 2 2 2 2 2 2 2 2 2 1 1 1 1 1 1 0 0 0 0 0 0 0 -0 -0 -0 -1 -1 -1 -1 -1 -1 -1 -1 -1 -1 -2
8 8 8 7 7 7 7 6 6 6 6 6 6 6 6 6 5 5 5 5 4 4 4 4 3 3 3 3 2 2 2 2 2 2 2 2 2 2 1 1 1 1 1 1 0 0 0 0 0 0 0 0 -0 -0 -0 -1 -1 -1 -1 -1 -1 -2 -2 -2 -2 -2 -2 -2 -2
8 8 7 7 7 7 6 6 6 6 6 6 6 5 5 5 5 5 5 4 4 4 4 3 3 3 2 2 2 2 2 2 2 2 1 1 1 1 1 1 1 0 0 0 0 0 0 0 0 0 -0 -0 -0 -1 -1 -1 -1 -1 -2 -2 -2 -2 -2 -2 -2 -2 -2 -3 -3
8 7 7 7 7 6 6 6 6 6 6 5 5 5 5 5 5 4 4 4 4 3 3 3 2 2 2 2 2 2 2 1 1 1 1 1 1 1 0 0 0 0 -0 -0 -0 -0 0 0 -0 -0 -0 -1 -1 -1 -1 -1 -2 -2 -2 -2 -2 -2 -3 -3 -3 -3 -3 -3 -3
7 7 7 7 7 6 6 6 6 6 5 5 5 5 5 4 4 3 3 3 3 2 2 2 2 2 1 1 1 1 1 1 1 1 1 0 0 0 -0 -0 -0 -0 -0 -0 -0 -0 -0 -0 -0 -1 -1 -1 -1 -2 -2 -2 -2 -2 -2 -3 -3 -3 -3 -3 -3 -4 -4 -4 -4
7 7 7 7 7 6 6 6 6 5 5 5 5 4 4 4 3 3 2 2 2 2 2 2 1 1 1 1 1 1 1 1 1 0 0 -0 -0 -0 -0 -0 -0 -0 -0 -0 -0 -0 -0 -1 -1 -1 -1 -2 -2 -2 -2 -2 -3 -3 -3 -3 -3 -3 -3 -4 -4 -4 -4 -4 -4
7 7 7 7 6 6 6 6 5 5 5 4 4 4 4 3 3 2 2 2 2 2 2 1 1 2 2 1 1 1 1 1 0 0 -0 -0 -0 -0 -0 0 0 0 -0 -0 -0 -1 -1 -1 -1 -2 -2 -2 -2 -2 -3 -3 -3 -3 -3 -3 -4 -4 -4 -4 -4 -4 -4 -4 -4
7 7 7 6 6 6 6 5 5 5 4 4 4 3 3 3 3 2 2 2 2 2 1 1 2 2 1 1 1 1 1 0 0 0 0 0 0 0 0 0 0 -0 -0 -1 -1 -1 -1 -2 -2 -2 -2 -2 -3 -3 -3 -3 -3 -4 -4 -4 -4 -4 -4 -4 -4 -4 -5 -5 -5
7 7 6 6 6 6 5 5 4 4 4 4 3 3 3 3 2 2 2 2 2 1 1 1 1 1 1 1 1 1 0 0 0 0 0 0 0 0 0 -0 -0 -1 -1 -1 -1 -1 -2 -2 -2 -2 -2 -3 -3 -3 -3 -4 -4 -4 -4 -4 -4 -4 -4 -5 -5 -5 -5 -5 -5
7 6 6 6 5 5 5 4 4 4 4 3 3 3 3 2 2 2 2 1 1 1 1 1 1 1 1 0 0 0 0 0 0 0 0 0 0 -0 -0 -0 -1 -1 -1 -1 -2 -2 -2 -2 -2 -3 -3 -3 -3 -4 -4 -4 -4 -4 -4 -4 -5 -5 -5 -5 -5 -5 -5 -5 -5
6 6 5 5 5 4 4 4 4 3 3 3 3 2 2 2 2 2 1 1 1 1 1 1 1 0 0 0 0 0 0 0 0 0 0 -0 -0 -0 -1 -1 -1 -1 -2 -2 -2 -2 -2 -3 -3 -3 -3 -4 -4 -4 -4 -4 -4 -4 -5 -5 -5 -5 -5 -5 -5 -5 -5 -5 -5
5 5 5 4 4 4 4 3 3 3 3 2 2 2 2 2 1 1 1 1 1 1 1 1 0 0 0 0 0 0 0 0 0 -0 -0 -0 -1 -1 -1 -1 -2 -2 -2 -2 -2 -3 -3 -3 -3 -3 -4 -4 -4 -4 -4 -4 -5 -5 -5 -5 -5 -5 -5 -5 -5 -5 -5 -5 -5
5 4 4 3 3 3 3 2 2 2 2 2 2 1 1 1 1 1 1 1 1 1 0 0 0 0 0 0 0 0 0 -0 -0 -0 -1 -1 -1 -1 -2 -2 -2 -2 -2 -3 -3 -3 -3 -3 -4 -4 -4 -4 -4 -4 -5 -5 -5 -5 -5 -5 -5 -5 -5 -5 -5 -5 -5 -5 -5
4 3 3 2 2 2 2 2 1 1 1 1 1 1 1 1 1 1 1 1 1 0 0 0 0 0 0 0 0 -0 -0 -0 -0 -1 -1 -1 -2 -2 -2 -2 -2 -2 -3 -3 -3 -3 -4 -4 -4 -4 -4 -4 -4 -5 -5 -5 -5 -5 -5 -5 -5 -5 -5 -5 -5 -5 -5 -5 -5
2 2 2 1 1 1 1 1 1 1 1 1 1 1 1 1 1 1 1 1 0 0 0 0 0 0 0 -0 -0 -0 -0 -1 -1 -1 -1 -2 -2 -2 -2 -3 -3 -3 -3 -3 -3 -4 -4 -4 -4 -4 -5 -5 -5 -5 -5 -5 -5 -5 -5 -5 -5 -5 -6 -6 -6 -5 -5 -5 -5
1 1 1 1 1 1 1 1 1 1 1 1 1 1 1 1 1 1 1 0 0 0 0 0 0 -0 -0 -0 -0 -0 -1 -1 -1 -2 -2 -2 -2 -3 -3 -3 -3 -3 -3 -4 -4 -4 -4 -4 -5 -5 -5 -5 -5 -5 -5 -5 -5 -5 -5 -5 -6 -6 -6 -6 -6 -6 -6 -6 -6
1 1 1 1 1 1 1 1 1 1 1 1 1 1 1 1 1 0 0 0 0 0 0 -0 -0 -0 -0 -1 -1 -1 -1 -1 -2 -2 -2 -3 -3 -3 -3 -3 -3 -4 -4 -4 -4 -4 -4 -5 -5 -5 -5 -5 -5 -5 -5 -5 -5 -5 -5 -6 -6 -6 -6 -6 -6 -6 -6 -6 -6
Height
803 803 803 802 801 801 800 799 798 798 797 797 796 796 796 795 794 794 793 792 792 791 791 791 791 791 791 791 791 791 791 792 792 792 792 793 793 793 794 794 794 794 793 793 792 791 791 791 792 792 792 792 792 792 793 793 793 793 793 794 795 795 796 796 796 796 796 796 795
802 802 802 801 801 800 799 798 798 797 796 796 796 796 795 795 794 793 793 792 792 791 791 791 791 791 791 791 791 791 791 791 791 791 791 791 791 791 792 792 792 793 792 792 791 791 791 791 791 791 791 791 791 791 791 791 791 792 792 793 793 794 794 795 795 795 794 794 794
801 801 801 800 800 799 798 797 797 796 796 795 795 795 794 794 793 793 792 792 792 791 791 791 791 791 791 791 791 791 791 791 790 790 790 790 790 790 790 790 791 791 791 791 790 790 790 790 790 790 790 790 790 790 790 790 790 791 791 791 791 792 792 792 792 792 792 792 792
800 800 799 799 798 798 797 797 796 796 795 794 794 794 793 793 793 792 792 792 791 791 791 791 792 792 792 792 791 791 791 791 790 790 790 789 789 789 789 790 790 790 790 789 789 789 789 789 789 789 789 789 789 789 789 789 789 790 790 790 791 791 791 791 791 791 791 791 790
798 798 797 797 796 796 796 796 795 795 794 793 793 792 792 792 792 792 791 791 791 791 791 791 791 791 791 791 791 791 791 791 791 790 790 789 789 789 789 789 789 789 789 788 788 788 788 788 788 788 788 788 788 788 788 788 788 789 789 789 789 789 790 790 790 790 789 789 789
797 796 796 796 795 795 795 795 794 794 793 792 792 791 791 791 791 791 791 790 790 790 790 791 791 791 791 791 791 791 791 791 791 790 790 789 789 789 789 789 788 788 788 787 787 787 787 787 787 787 788 787 787 787 787 787 787 788 788 788 788 788 788 788 788 788 788 788 788
796 795 795 794 793 793 793 793 793 792 792 791 791 791 791 791 790 790 790 789 789 789 790 790 790 790 790 790 791 790 790 790 790 790 789 789 789 789 788 788 788 787 787 787 787 787 787 787 787 787 787 787 786 786 786 787 786 787 787 787 787 787 787 787 787 787 787 786 786
794 794 793 792 792 792 792 792 791 791 791 790 790 789 789 789 789 789 789 788 788 789 789 789 789 789 789 790 789 789 789 789 789 789 788 788 788 788 787 787 787 786 786 786 786 786 786 786 786 786 786 786 786 786 786 786 786 786 786 786 786 786 786 786 786 786 785 785 785
792 792 791 791 791 790 790 790 790 790 789 789 788 788 788 788 787 787 787 787 787 787 788 788 788 788 788 788 788 788 788 788 788 787 787 787 787 787 787 786 786 786 786 786 785 785 785 785 785 785 785 785 785 785 785 785 785 785 784 784 784 784 784 784 784 784 784 784 783
791 791 790 789 789 789 789 789 788 788 788 787 787 787 786 786 786 786 786 786 786 786 786 786 787 787 787 787 787 787 787 787 786 786 786 786 786 786 786 786 785 785 785 785 784 784 784 784 784 784 784 783 783 783 783 783 783 783 783 783 783 783 783 783 783 783 782 782 782
789 789 788 788 788 787 787 787 787 786 786 786 786 785 785 785 785 785 785 785 785 785 785 785 786 786 786 786 786 786 786 786 786 786 786 786 785 785 785 785 785 784 784 784 783 783 783 783 783 783 782 782 782 782 782 782 782 782 782 781 781 781 781 781 781 781 781 781 780
788 787 787 787 786 786 786 786 785 785 784 784 784 783 783 783 783 783 783 783 783 783 784 784 784 785 785 785 785 785 785 785 785 785 785 785 785 784 784 784 783 783 783 783 782 782 782 782 781 781 781 781 781 781 781 781 781 781 780 780 780 780 780 780 780 780 779 779 779
786 786 786 786 785 785 785 784 784 783 783 782 782 782 782 782 781 781 781 781 781 782 782 782 783 783 783 784 784 784 785 785 785 785 785 784 784 783 783 783 782 782 782 781 781 781 781 781 781 780 780 780 780 780 780 780 779 779 779 779 779 778 778 778 778 778 778 777 777
785 785 785 785 784 784 783 783 783 782 781 781 781 780 780 780 780 780 780 780 780 780 780 781 781 781 782 782 783 783 784 784 784 784 784 783 783 782 782 781 781 781 781 781 780 780 780 780 779 779 779 779 779 779 779 778 778 778 778 777 777 777 777 777 776 776 776 776 775
785 784 784 784 783 783 783 782 781 781 780 780 779 778 778 778 778 778 778 778 778 778 778 779 779 780 780 781 781 782 782 783 783 783 782 782 781 781 781 780 780 780 780 779 779 779 779 778 778 778 778 778 777 777 777 777 777 776 776 776 776 776 775 775 775 775 774 774 774
784 784 784 783 783 782 782 781 781 780 779 778 777 777 777 777 777 777 777 777 777 777 777 777 777 778 778 779 779 780 781 781 781 781 781 780 780 780 779 779 779 779 778 778 778 778 777 777 777 777 777 776 776 776 776 776 775 775 775 775 774 774 774 774 773 773 773 772 772
784 783 783 783 782 782 781 781 780 779 778 777 776 776 776 776 776 776 776 776 776 776 776 776 776 776 776 777 777 778 779 779 779 779 779 779 778 778 778 778 778 777 777 777 776 776 776 776 776 776 776 775 775 775 774 774 774 773 773 773 773 772 772 772 772 771 771 771 770
783 783 783 782 782 781 781 780 779 778 777 776 776 776 776 776 775 775 775 775 775 775 775 775 775 775 775 775 776 776 776 776 777 777 777 777 777 777 777 776 776 776 776 776 775 775 775 775 775 775 774 774 774 773 773 773 772 772 771 771 771 771 771 770 770 770 769 769 768
783 782 782 782 781 781 780 779 778 777 776 776 776 776 776 776 775 775 775 775 775 774 774 774 774 774 774 774 774 774 774 775 775 775 775 775 775 775 775 775 775 775 775 774 774 774 774 774 774 773 773 773 772 772 772 771 771 771 770 770 769 769 769 769 768 768 768 767 767
782 781 781 781 780 779 779 778 777 776 776 776 776 776 776 776 776 776 776 775 775 774 774 773 773 773 773 773 773 773 773 773 773 773 773 774 774 774 774 774 774 774 773 773 773 773 773 772 772 772 772 771 771 771 770 770 770 769 769 768 768 767 767 767 767 766 766 766 765
781 781 780 779 779 778 777 776 776 775 775 775 775 776 776 776 776 776 776 776 775 775 774 773 772 772 772 772 772 771 771 771 771 771 772 772 772 772 772 772 772 772 772 772 772 771 771 771 771 771 771 770 770 769 769 769 768 767 767 767 766 766 766 766 765 765 765 764 764
780 779 778 778 777 776 776 775 775 774 774 775 775 776 776 776 776 776 776 776 775 774 773 772 772 771 771 771 771 771 770 770 770 770 770 770 771 771 771 771 771 771 771 771 771 770 770 770 770 769 769 769 768 768 767 767 766 766 766 765 765 765 764 764 764 763 763 762 762
778 778 777 776 775 775 774 774 774 774 774 775 775 776 776 776 776 776 776 775 775 774 773 772 771 771 770 770 770 770 769 769 769 769 769 769 770 770 770 770 770 770 770 770 769 769 769 768 768 768 768 767 767 766 766 766 765 764 764 763 763 763 762 762 762 761 761 761 760
777 776 776 775 774 774 773 773 773 773 774 774 775 776 776 776 776 776 775 774 774 773 772 771 771 770 770 770 770 769 769 768 768 768 768 768 769 769 769 769 769 769 769 768 768 768 767 767 767 766 766 766 765 765 764 764 763 763 762 762 761 761 761 761 760 760 759 759 758
776 775 774 774 773 773 773 773 773 773 774 774 775 775 776 775 775 775 774 773 773 772 771 771 770 770 769 769 769 769 768 768 767 767 767 767 768 768 768 768 768 768 768 767 767 767 766 766 766 765 765 764 764 763 763 762 762 761 761 761 760 760 759 759 758 758 757 757 756
775 774 773 773 773 772 772 772 772 773 773 774 774 774 774 774 774 773 773 772 772 771 771 770 769 769 769 769 769 768 768 767 767 766 766 766 767 767 767 767 767 767 766 766 766 765 765 765 764 764 763 763 762 762 761 761 761 760 760 759 759 758 757 757 756 756 755 754 754
774 773 773 772 772 771 771 771 772 772 772 773 773 773 773 773 772 772 772 771 771 770 770 769 769 768 768 768 768 767 767 766 766 766 766 766 766 766 766 766 766 766 765 765 764 764 764 763 763 762 762 761 761 760 760 760 759 759 758 758 757 757 756 755 754 753 752 752 751
773 772 772 771 771 771 770 771 771 771 771 771 772 772 772 772 771 771 771 770 770 769 769 768 768 768 768 767 767 767 766 766 765 765 765 765 765 765 765 765 765 764 764 764 763 763 762 762 762 761 761 760 760 759 759 758 758 757 757 756 756 755 754 753 752 751 750 749 749
771 771 771 770 770 769 769 769 770 770 770 770 771 771 771 771 771 771 770 770 769 769 768 768 768 767 767 767 767 766 766 765 765 764 764 764 764 764 764 764 764 763 763 763 762 762 761 761 761 760 760 759 759 758 757 757 756 756 755 755 754 753 752 751 751 750 749 748 747
771 770 770 769 769 768 768 768 768 769 769 769 769 770 770 770 770 770 770 769 769 769 768 768 767 767 766 766 766 766 765 765 764 764 763 763 763 763 763 763 763 762 762 761 761 761 760 760 759 759 759 758 757 757 756 756 755 755 754 753 752 751 751 750 749 748 747 746 745
770 769 768 768 768 767 767 767 767 768 768 768 768 769 769 769 770 770 770 769 769 769 768 767 767 766 766 766 765 765 764 764 763 763 763 762 762 762 762 762 762 761 761 761 760 760 759 759 758 758 757 757 756 756 755 755 754 753 752 751 750 750 749 748 747 746 745 744 744
769 768 767 767 766 766 766 766 767 767 767 767 767 768 768 769 769 769 769 769 769 768 768 767 767 766 766 765 764 764 763 763 762 762 762 762 762 761 761 761 761 761 760 760 759 759 758 758 757 757 756 756 755 755 754 753 752 751 751 750 749 748 747 746 745 744 744 743 742
768 767 766 766 766 766 766 766 766 766 767 767 767 768 768 769 769 769 769 769 768 768 767 767 766 766 765 765 764 763 763 762 762 761 761 761 761 761 760 760 760 760 759 759 758 758 757 757 756 756 755 755 754 753 752 751 751 750 749 748 747 746 746 745 744 743 742 741 741
766 766 765 765 765 765 765 765 766 766 766 767 767 768 768 768 769 769 768 768 768 767 767 767 766 766 765 765 764 763 762 762 761 761 761 760 760 760 760 759 759 759 758 758 757 757 756 756 755 755 754 753 752 752 751 750 749 748 747 746 745 744 744 743 742 741 741 740 740
766 765 765 764 764 764 764 765 765 766 767 767 767 768 768 768 768 768 768 767 767 767 766 766 766 766 765 765 764 763 762 761 761 761 760 760 759 759 759 758 758 758 757 757 756 756 755 755 754 753 753 752 751 750 749 748 747 746 745 744 743 742 742 741 741 740 740 739 738
765 764 764 764 764 764 764 765 766 766 767 767 767 767 768 768 768 767 767 767 766 766 766 766 765 765 765 764 764 763 762 761 761 760 759 759 758 758 758 757 757 757 756 756 756 755 754 754 753 752 751 751 750 749 748 747 746 745 743 742 741 741 740 740 739 739 738 737 737
765 765 765 765 764 764 764 765 766 766 767 767 767 767 767 767 767 767 766 766 766 765 765 765 765 765 764 764 763 762 761 761 760 759 759 758 758 757 757 757 756 756 756 755 755 754 753 752 751 751 750 749 748 747 746 745 744 743 742 741 740 740 739 738 738 737 736 736 735
766 766 766 765 765 765 765 765 766 766 766 767 767 767 767 766 766 766 766 765 765 765 765 765 765 764 764 763 762 762 761 760 759 759 758 758 757 757 756 756 756 755 755 754 753 753 752 751 750 750 749 748 747 746 745 744 742 741 741 740 739 738 737 737 736 735 734 733 733
766 766 766 765 765 765 765 765 766 766 766 766 766 766 766 766 766 765 765 765 765 765 765 764 764 763 763 762 761 761 760 759 759 758 757 757 756 756 756 755 755 754 754 753 752 751 751 750 749 748 748 747 746 745 744 742 741 740 739 738 737 736 736 735 734 733 732 731 731
766 766 766 765 765 765 765 765 766 766 766 766 766 766 766 765 765 765 765 765 764 764 764 764 763 763 762 761 761 760 760 759 758 757 757 756 756 756 755 755 754 753 753 752 751 751 750 749 748 747 746 746 745 744 742 741 740 739 738 737 736 735 734 733 732 732 731 730 729
767 766 766 766 766 765 766 766 766 766 766 766 766 766 765 765 765 765 764 764 764 764 763 763 763 762 761 761 760 760 759 758 758 757 757 756 756 755 755 754 753 752 751 751 750 749 749 748 747 746 746 745 744 742 741 740 739 738 737 736 735 734 733 731 731 730 729 728 727
Wind_Speed
11 13 14 15 16 17 18 18 17 16 15 13 12 11 11 10 9 9 7 6 5 5 5 6 8 10 12 13 14 13 12 10 9 8 7 7 7 7 8 9 10 11 12 13 14 16 17 18 18 17 15 13 11 9 8 8 9 9 10 10 11 12 13 15 16 17 18 18 17
11 12 13 15 16 17 17 17 16 15 13 12 11 11 10 10 9 8 7 6 6 6 6 7 10 12 13 13 12 11 10 9 9 8 8 8 9 10 10 10 11 12 13 13 14 13 13 13 12 12 11 11 9 9 9 9 9 10 10 11 13 14 15 16 17 18 18 17 16
11 12 13 14 15 16 16 15 14 13 12 12 12 11 11 10 9 8 7 7 7 7 8 9 11 12 11 10 10 9 8 8 7 8 8 9 9 9 9 9 10 11 11 12 12 11 10 10 9 9 9 9 8 9 9 9 10 11 12 13 14 14 15 15 15 15 14 13 12
11 12 13 14 14 15 15 15 14 13 13 13 12 12 11 10 9 9 8 8 7 7 8 10 10 9 8 7 6 6 6 6 6 6 6 6 6 6 7 8 9 10 10 10 10 9 8 8 8 8 8 9 9 10 11 11 12 13 13 13 13 12 12 12 11 11 11 11 11
11 12 12 13 13 14 14 15 14 14 14 13 13 12 11 10 10 10 9 9 9 9 9 9 8 7 6 5 4 4 4 4 5 5 6 6 7 7 8 10 10 10 10 9 8 8 7 8 9 10 11 11 12 12 12 12 12 11 11 11 10 11 11 11 11 11 11 11 12
11 12 12 12 13 13 14 15 15 15 14 14 13 12 11 10 10 11 10 10 10 9 8 7 6 5 5 5 5 5 5 5 5 6 7 8 9 10 11 11 11 10 9 8 7 7 8 9 10 11 12 12 12 11 11 10 9 9 10 10 10 11 11 11 12 12 12 12 12
11 11 12 12 13 13 14 15 15 15 14 14 13 12 11 11 11 11 11 10 10 9 8 7 6 6 6 6 6 7 7 7 8 8 9 10 10 11 11 11 10 8 7 7 7 8 9 9 10 10 10 10 9 9 8 8 9 9 10 11 11 11 11 12 12 12 12 13 13
11 11 12 12 13 14 14 15 16 15 14 14 13 12 12 12 12 12 12 11 10 9 8 7 7 7 7 7 8 8 9 9 10 10 11 11 11 11 10 9 8 7 7 7 7 8 8 8 8 8 8 8 8 8 8 9 9 10 11 11 12 12 12 12 13 13 13 14 14
11 11 12 13 13 14 15 15 16 15 15 14 13 13 13 13 13 13 12 11 10 9 8 8 8 8 8 8 9 9 10 11 11 11 11 11 11 9 8 7 6 6 7 7 7 7 8 8 8 8 9 9 9 9 10 10 11 11 12 12 13 13 14 14 14 14 14 15 15
11 12 12 13 14 14 15 16 16 15 15 15 14 14 14 14 14 13 12 11 10 9 8 8 8 8 8 9 10 11 11 11 11 10 10 10 8 6 6 6 7 7 7 8 8 8 9 9 10 10 10 11 11 11 11 12 12 13 13 14 14 15 15 15 15 15 15 15 16
12 12 13 13 14 15 15 16 16 16 16 16 15 15 15 15 14 13 12 11 10 9 8 8 8 8 8 9 10 10 10 10 9 7 6 6 6 6 7 7 8 9 9 10 10 10 11 11 11 11 12 12 12 12 13 13 14 14 15 15 15 16 16 16 16 16 16 16 16
12 12 13 14 14 15 16 16 17 17 17 16 16 16 16 16 15 14 12 11 10 9 8 8 8 8 8 9 9 9 8 7 7 6 7 7 7 8 8 9 10 10 11 11 11 11 11 11 12 12 12 13 13 14 14 14 15 15 15 16 16 16 16 16 16 16 16 16 16
12 12 13 14 15 16 17 17 17 17 17 17 17 17 17 16 16 14 13 11 10 9 9 8 8 8 8 8 8 8 8 8 8 8 8 8 9 10 10 11 12 12 12 12 11 11 11 12 12 13 13 14 14 15 15 15 15 15 15 16 16 16 16 16 16 16 16 16 16
12 12 13 14 15 16 17 18 18 18 18 18 18 18 18 18 17 15 14 12 11 10 9 9 8 8 8 8 9 10 11 11 11 10 10 10 11 12 12 12 12 12 11 11 11 11 12 12 13 13 14 15 15 15 15 15 15 15 15 15 15 16 16 16 16 16 16 16 17
12 13 13 14 15 16 17 18 19 19 20 20 20 20 20 19 18 16 14 13 12 11 10 10 9 8 8 9 10 12 13 13 12 12 12 13 13 13 13 12 12 11 11 11 11 12 12 13 13 14 14 15 15 15 15 14 14 14 14 14 15 15 16 16 16 16 16 16 17
12 13 14 15 16 17 18 19 20 21 22 22 22 22 21 19 18 17 15 14 13 12 11 11 10 9 10 11 13 14 15 14 14 14 15 14 14 13 12 12 11 11 11 11 12 12 13 13 14 14 14 14 14 14 14 14 14 14 14 14 15 15 16 16 16 16 16 16 17
13 13 14 15 17 18 19 21 22 23 24 24 23 21 20 19 18 17 16 14 13 13 12 11 10 10 11 13 15 16 16 15 15 16 16 15 13 12 11 11 11 11 11 12 12 13 13 13 13 13 13 13 13 13 14 14 14 14 14 15 15 16 16 16 16 16 16 16 17
13 14 15 17 18 19 21 22 23 24 24 23 22 21 20 20 19 17 16 14 14 13 12 11 11 11 13 15 16 16 16 16 16 16 15 14 12 11 10 10 11 11 11 12 12 12 12 13 13 13 13 13 13 14 14 14 15 15 15 16 16 16 16 16 17 17 17 17 17
14 16 17 18 19 21 22 23 23 24 24 23 22 21 20 19 18 16 15 14 14 13 13 12 13 15 16 17 17 17 17 17 16 15 13 12 11 10 10 10 10 11 11 11 11 11 12 12 12 12 13 13 14 14 15 15 16 16 16 16 17 17 17 17 17 17 17 18 18
15 17 18 19 20 21 22 22 23 23 23 22 20 19 18 17 16 15 14 14 14 14 14 14 16 18 18 18 17 17 16 15 14 13 11 10 9 9 9 9 9 9 9 9 10 10 11 11 12 13 13 14 15 16 16 16 17 17 17 17 17 17 18 18 18 18 18 19 19
16 17 18 19 20 20 20 21 20 20 19 18 17 16 16 15 14 14 13 14 14 14 15 16 17 17 16 16 15 14 13 13 12 10 9 9 8 8 8 8 8 8 8 9 9 10 11 12 13 14 14 15 16 17 17 17 17 17 18 18 18 18 18 18 19 19 19 20 20
16 17 18 18 19 18 18 18 17 15 14 13 13 13 13 13 13 13 14 14 15 16 16 16 16 15 14 13 12 11 10 10 9 8 7 7 7 7 7 7 7 7 8 9 10 11 12 13 14 15 16 17 17 18 18 18 18 18 18 18 18 18 19 19 19 20 20 21 21
16 16 16 16 16 16 15 14 13 11 10 10 11 12 12 12 12 13 14 15 16 17 16 16 15 13 12 10 9 8 8 7 6 6 6 5 6 6 6 7 8 8 9 10 11 12 13 15 16 17 17 18 18 18 18 18 18 18 18 18 18 19 19 20 20 21 21 22 22
15 15 15 14 14 13 12 11 10 9 8 9 10 11 11 12 13 14 15 16 16 16 15 14 13 11 9 8 8 7 6 6 5 5 5 6 6 7 8 9 10 10 11 12 13 13 14 16 17 17 18 18 18 18 18 17 17 17 17 18 18 19 20 20 21 22 22 23 24
14 14 13 12 11 11 10 9 9 9 9 9 10 11 12 13 14 15 15 16 15 15 14 12 11 9 8 7 6 6 5 5 5 5 6 7 8 9 10 11 11 12 12 13 13 14 15 16 16 17 18 18 17 17 17 16 16 16 17 17 18 19 20 21 22 23 24 24 25
14 13 12 11 11 10 10 10 10 10 11 11 12 13 14 15 15 15 15 15 14 13 12 11 10 8 7 6 6 5 4 5 6 7 8 9 10 10 11 12 12 12 12 13 13 14 15 15 16 16 16 16 16 16 16 16 16 16 17 17 18 19 21 22 24 25 26 26 26
13 13 12 11 11 11 11 11 12 12 12 13 14 14 15 16 16 16 15 15 14 13 12 10 8 7 6 6 5 5 5 6 7 8 9 10 11 11 12 12 12 12 12 13 14 14 15 15 15 15 14 14 15 15 15 16 16 17 17 18 19 20 22 23 25 26 27 27 27
13 12 11 11 11 12 12 12 12 13 13 14 15 16 17 17 17 16 15 14 13 11 9 8 6 5 5 4 5 6 7 8 9 10 10 11 11 12 12 12 13 13 13 14 14 14 14 14 14 14 13 14 14 15 15 16 16 17 18 19 21 22 23 24 25 26 26 26 26
12 12 12 12 12 12 12 12 13 14 14 15 16 17 18 18 17 15 13 11 10 8 6 5 4 4 5 7 8 10 11 11 11 11 12 12 12 12 12 13 13 13 13 13 14 14 13 13 14 13 13 13 14 14 15 16 17 18 20 21 22 23 24 24 25 25 25 25 25
12 12 12 12 12 12 13 13 14 15 16 17 17 18 18 17 14 12 10 8 7 5 5 5 6 8 10 11 12 13 13 13 13 13 13 12 12 12 12 12 12 13 13 13 13 13 13 13 13 13 13 13 14 15 16 17 18 19 21 22 23 23 24 24 24 24 24 24 24
13 13 13 13 13 13 14 15 15 16 17 17 17 16 15 13 10 9 8 7 5 5 7 9 11 12 13 14 15 15 15 15 14 13 12 11 11 11 11 12 12 12 13 12 13 13 13 12 13 13 13 14 14 15 17 18 19 20 21 22 23 23 23 23 23 23 23 22 22
14 14 14 15 15 15 15 16 16 16 15 14 13 12 10 8 7 6 6 6 7 9 11 13 14 15 15 15 15 15 14 13 11 10 10 10 10 11 12 12 12 12 12 12 12 12 12 12 13 13 14 15 15 16 18 19 20 21 21 22 22 22 22 22 22 22 21 21 21
16 16 16 16 16 16 15 15 14 13 11 10 8 7 6 5 5 5 6 8 10 13 14 15 15 15 15 15 14 12 11 9 9 9 9 10 11 11 12 12 12 11 11 11 11 12 12 13 14 14 15 15 16 17 18 19 20 21 21 21 22 22 21 21 21 20 20 20 20
17 17 17 17 16 14 12 11 10 8 7 6 5 4 4 5 5 7 9 11 13 14 15 15 14 14 13 12 11 10 9 8 8 9 10 10 11 11 11 11 11 11 11 11 12 12 13 14 15 15 16 16 17 17 18 19 20 20 21 21 21 21 21 20 20 19 19 19 20
16 15 14 12 10 9 7 6 5 5 4 3 4 4 5 7 8 10 12 13 14 14 13 13 12 11 10 9 9 9 9 9 10 10 10 11 11 11 11 10 10 11 11 12 12 13 14 15 15 16 16 16 17 17 18 19 20 20 21 21 21 21 20 20 19 19 19 19 19
11 9 8 6 5 4 4 3 3 2 3 4 5 6 8 9 10 11 12 12 12 11 11 10 10 9 9 9 9 9 10 10 10 11 11 10 10 10 10 10 10 11 11 12 13 14 15 15 16 16 16 16 17 18 18 19 20 21 21 21 21 20 20 19 19 19 20 20 20
6 6 5 5 5 5 5 5 4 4 5 7 8 9 10 10 10 10 10 10 10 9 9 9 9 9 9 10 10 10 11 11 11 11 10 10 10 10 10 10 11 11 12 13 14 14 15 16 16 15 15 16 17 18 19 20 20 21 21 20 20 19 19 19 19 20 21 21 22
6 6 7 7 7 7 7 7 7 8 8 9 9 10 10 10 9 9 9 9 9 9 9 10 10 10 11 11 11 11 11 11 11 10 9 9 9 9 10 11 11 12 13 13 14 15 15 16 15 15 15 16 17 18 19 20 21 21 20 20 19 19 20 20 21 21 22 23 23
6 7 7 8 8 8 8 8 9 9 9 9 9 9 9 9 9 9 9 9 9 10 10 11 11 12 12 12 12 12 11 10 10 9 9 8 9 9 10 11 12 13 14 14 14 15 15 16 15 15 15 16 17 18 19 20 20 20 20 20 20 21 21 21 22 22 22 22 22
6 6 6 7 8 9 9 9 9 9 9 9 9 9 9 9 9 9 10 10 10 11 11 12 12 12 12 12 12 11 10 9 9 8 8 8 8 9 10 12 13 14 15 15 15 15 15 15 15 15 15 16 17 18 19 20 20 19 19 19 19 20 21 21 21 21 21 21 21
5 6 8 9 10 10 10 9 9 8 8 9 9 10 10 10 10 10 10 10 11 11 12 12 12 12 12 12 12 11 9 8 7 7 7 8 9 10 11 12 14 15 15 15 15 15 15 15 15 15 16 17 18 18 19 19 18 18 18 18 19 20 20 21 21 20 20 20 21
Wind_Direction
326 323 319 316 314 312 310 310 308 307 306 306 308 309 310 310 310 307 302 291 274 252 230 212 200 192 185 179 176 175 177 182 190 202 216 233 252 269 281 291 299 305 307 303 297 292 290 290 291 292 293 292 292 292 292 292 295 298 300 297 294 292 291 292 293 294 295 295 297
321 317 314 311 310 308 307 306 304 302 301 301 301 301 301 301 299 296 288 273 255 238 221 205 193 184 177 175 176 182 190 199 209 221 235 250 263 275 285 295 306 314 318 320 319 317 314 310 305 300 295 291 287 284 282 283 284 286 286 285 283 283 283 283 285 286 288 289 291
314 310 308 306 305 305 303 301 298 295 292 292 292 292 292 291 288 283 274 261 247 225 203 189 181 176 173 177 185 196 209 221 234 246 256 264 271 278 287 299 311 319 323 326 328 328 326 320 312 305 299 293 288 284 283 284 283 281 280 279 278 277 277 278 281 283 285 287 289
307 303 301 301 301 300 298 294 290 286 284 283 284 285 285 283 279 273 264 252 233 212 194 183 180 182 188 198 209 222 235 247 256 262 267 272 278 287 299 311 319 323 325 328 331 331 328 321 312 303 294 289 284 283 283 285 284 284 283 283 282 282 284 287 289 291 292 292 292
299 297 296 296 297 295 292 288 284 281 279 278 278 278 277 275 271 265 255 241 222 208 199 192 194 201 214 229 243 254 261 266 266 268 272 276 282 294 306 314 319 322 324 327 329 328 320 310 300 293 289 287 287 288 290 292 292 292 291 291 292 293 295 296 296 296 295 294 293
294 293 293 293 293 290 287 283 280 277 275 274 274 272 270 267 264 257 244 227 214 207 204 205 212 225 239 251 258 262 264 265 264 267 273 281 289 298 306 312 315 317 320 321 319 313 305 298 293 292 292 294 297 300 302 303 302 299 298 297 297 297 297 296 296 295 294 294 293
292 290 290 291 290 287 282 278 276 274 272 271 271 269 265 261 256 248 237 227 219 217 219 225 236 247 255 260 261 262 264 267 271 275 282 289 296 301 306 308 310 311 310 309 305 301 298 297 297 298 300 303 304 306 306 305 303 301 300 299 298 298 297 296 296 296 295 294 294
290 289 289 289 287 284 280 275 272 270 269 268 267 265 260 255 250 243 236 231 228 229 236 245 254 261 266 268 270 272 275 280 285 289 292 295 299 301 302 303 304 303 302 300 298 298 298 299 301 303 305 306 306 307 307 307 306 304 302 301 300 299 299 298 298 297 296 295 295
288 288 289 287 285 281 277 273 270 268 268 268 266 262 256 251 246 241 237 235 237 242 249 257 264 269 274 277 279 282 285 288 291 293 294 295 295 295 295 296 295 295 294 294 295 297 300 303 305 307 309 310 312 312 312 311 309 307 305 303 303 303 302 301 300 299 298 296 295
290 289 288 285 282 279 275 271 269 267 267 267 265 260 253 246 242 240 239 240 244 250 257 263 268 273 278 280 283 285 287 288 289 288 287 286 284 283 283 283 285 287 291 294 297 300 303 306 308 310 312 314 315 316 315 313 311 309 308 306 306 305 304 303 302 301 299 298 296
290 289 286 284 281 277 273 270 268 268 267 265 263 257 249 242 238 237 239 242 247 253 258 263 269 273 276 279 280 282 283 283 280 276 271 267 266 267 272 277 282 287 291 295 297 300 302 304 306 309 312 314 315 316 315 314 312 311 310 308 307 306 305 304 303 303 302 300 299
291 289 286 283 279 276 273 270 269 268 266 263 259 253 246 240 237 236 238 241 247 252 256 260 264 266 269 271 275 277 278 275 268 263 259 259 262 267 272 278 282 286 289 292 294 296 299 302 306 309 312 313 314 315 315 314 312 311 310 309 308 307 306 306 305 305 304 302 300
290 289 286 282 279 276 273 271 269 268 265 262 257 251 245 240 238 238 239 242 245 248 250 252 255 258 261 267 274 279 280 274 265 260 260 263 267 271 275 278 281 284 286 289 292 295 299 303 307 310 312 312 313 312 312 312 311 310 309 309 308 307 307 307 307 306 305 303 300
290 289 287 283 279 276 274 272 271 269 267 263 258 252 246 241 238 238 240 242 243 243 243 244 247 251 259 270 278 281 280 274 265 262 265 269 272 274 276 278 280 282 285 289 293 298 302 306 308 310 310 310 310 309 309 309 309 309 309 309 309 308 308 308 308 307 305 302 300
291 291 289 286 281 278 276 274 274 273 270 265 261 254 246 240 237 236 237 239 239 239 240 241 242 248 258 269 276 278 274 267 263 266 271 273 274 275 276 278 280 283 287 292 297 301 305 307 309 309 309 308 308 307 307 307 308 309 310 310 309 309 308 308 307 306 304 302 300
295 295 293 290 285 282 280 279 279 278 275 269 262 254 246 239 236 235 236 237 237 237 237 237 241 249 261 272 276 275 270 261 263 269 272 272 273 274 276 278 282 287 292 297 301 304 306 308 308 308 308 307 306 306 307 308 309 309 309 309 309 308 307 307 306 305 303 302 299
299 299 297 295 291 288 286 285 284 282 278 272 263 254 246 239 236 235 235 235 233 233 233 235 242 255 268 276 276 271 265 261 265 269 270 270 271 273 276 281 286 291 297 301 303 305 307 308 308 308 309 309 309 309 309 309 309 309 308 308 307 306 306 305 305 303 302 301 299
302 302 302 300 297 295 294 292 289 285 280 273 263 253 245 239 236 234 233 231 230 230 232 238 250 266 276 277 271 264 260 263 266 267 267 268 271 274 278 284 290 295 299 302 305 307 308 309 310 310 311 311 311 310 310 310 309 308 308 307 306 305 305 304 303 302 300 299 297
305 306 306 305 303 301 299 297 292 287 280 272 262 252 243 237 234 232 230 229 230 233 239 250 266 278 280 275 267 261 262 265 266 266 266 268 271 276 281 287 292 297 301 305 308 311 312 313 313 313 313 312 312 311 311 310 309 307 306 305 305 304 303 302 301 300 298 296 295
307 309 309 308 307 305 302 298 294 288 281 272 260 248 239 234 232 231 231 234 238 244 253 266 276 280 278 272 266 264 265 266 265 265 265 267 270 276 283 289 294 299 306 312 315 316 316 316 316 315 314 313 312 311 310 308 307 305 304 303 303 302 301 300 299 297 296 294 293
309 310 310 310 309 307 304 301 297 291 283 271 256 243 235 233 233 237 242 247 251 256 263 270 274 275 272 270 268 267 266 265 263 262 262 263 268 274 282 290 299 308 315 318 319 319 319 318 317 316 315 313 312 310 308 306 305 304 303 302 301 301 300 298 297 295 294 292 291
309 310 311 311 310 308 306 304 300 293 282 265 248 238 236 238 244 251 256 259 261 262 265 269 272 273 273 272 270 266 262 258 256 254 256 261 268 275 284 295 306 313 317 319 320 321 320 318 317 315 313 312 310 308 306 305 304 303 302 301 301 299 298 297 295 293 292 291 290
309 309 310 310 310 308 307 305 300 291 274 255 244 241 245 253 260 264 266 266 266 268 270 274 276 276 275 271 265 259 252 248 246 251 259 271 281 290 298 304 309 312 313 315 317 317 316 315 314 312 311 309 307 306 305 304 303 303 302 301 300 298 296 295 293 292 291 290 290
307 308 309 308 307 306 305 302 295 281 265 253 251 255 262 269 271 271 271 270 272 274 277 279 278 276 271 263 256 251 249 250 258 270 283 294 301 305 307 309 309 309 309 310 311 312 312 311 310 309 308 306 305 304 303 303 302 302 301 300 298 296 294 293 292 291 291 291 292
306 307 307 305 303 300 298 293 285 275 267 265 268 273 276 277 276 274 273 274 275 277 278 278 276 271 263 254 249 250 258 271 287 300 308 312 314 314 313 312 310 309 308 308 308 308 308 307 307 306 305 304 303 303 303 303 302 301 299 297 296 295 294 294 293 293 294 295 296
305 305 302 299 295 291 287 284 281 279 278 279 281 281 280 278 277 275 275 275 276 276 277 276 271 264 254 247 247 255 271 292 309 319 322 322 320 319 317 315 314 313 312 311 309 308 306 305 304 303 302 302 302 303 303 302 300 299 298 297 296 296 297 297 298 298 299 299 299
302 300 296 293 289 285 283 283 283 283 283 284 284 282 280 278 278 277 277 277 277 276 274 269 260 252 247 248 257 275 298 315 324 327 327 326 324 322 320 319 319 318 316 313 310 308 306 305 304 303 303 304 303 303 302 300 299 298 298 298 298 299 300 300 301 301 301 301 301
296 295 292 290 287 286 286 286 285 285 285 284 283 281 280 280 280 280 279 278 276 271 263 252 248 250 260 280 298 312 322 328 330 331 329 327 325 324 322 321 320 318 315 311 308 306 305 305 306 307 306 305 303 302 300 300 300 300 300 301 301 302 302 301 301 301 301 301 301
292 291 289 288 287 287 287 286 284 284 283 282 281 281 282 283 283 282 279 274 266 253 242 245 263 290 311 322 326 328 329 330 330 329 328 325 324 322 320 318 316 312 308 305 304 305 306 308 308 307 306 304 302 302 302 302 303 303 303 303 303 303 302 302 301 301 301 301 301
289 287 286 286 286 286 285 283 281 281 280 280 281 283 285 287 284 278 269 260 249 245 259 287 309 320 324 325 326 327 327 326 325 324 324 322 321 318 315 312 308 305 303 303 305 307 308 308 307 307 306 304 304 304 304 305 305 304 304 304 303 303 302 302 302 302 303 303 304
284 282 282 282 281 281 281 280 280 281 282 284 286 290 292 291 281 269 258 252 260 281 300 312 319 320 320 320 321 321 320 320 320 320 321 319 315 311 307 304 303 303 304 307 309 309 309 309 309 309 309 308 308 307 306 306 305 304 303 303 302 302 302 303 304 304 305 306 306
280 279 278 277 278 278 280 282 284 287 290 294 297 300 299 291 278 268 267 278 295 309 316 319 319 318 317 317 317 317 317 318 320 320 318 313 307 304 302 303 305 307 309 310 310 311 312 312 312 312 312 311 310 308 307 305 304 303 302 302 302 302 304 305 306 307 307 308 307
280 279 278 278 279 282 285 290 295 300 304 307 308 307 302 293 285 288 297 306 312 316 318 319 318 317 317 316 317 318 319 320 319 316 312 307 304 304 305 308 310 311 312 313 314 315 315 315 315 314 313 312 310 308 307 305 304 303 303 303 303 304 306 307 308 309 308 308 307
284 284 285 286 288 292 298 304 310 313 314 313 308 305 303 303 305 309 312 314 315 316 316 317 317 318 318 319 321 322 321 319 316 313 309 307 306 307 309 311 313 314 315 317 318 319 318 317 316 315 314 312 310 308 307 306 305 305 305 306 307 308 309 309 309 309 308 307 306
292 295 298 301 304 311 319 324 324 319 314 307 307 307 310 312 314 316 317 317 317 317 317 318 320 321 322 322 322 321 319 317 315 312 310 308 309 310 313 315 317 318 320 321 321 320 319 318 317 316 314 312 310 308 307 307 307 308 308 309 310 311 311 310 309 308 307 305 303
308 317 327 335 346 357 3 2 355 339 325 321 323 323 322 321 320 319 319 320 320 320 321 323 324 324 322 321 320 318 317 315 314 313 312 312 313 314 316 318 320 321 323 323 322 321 320 319 318 317 315 312 310 309 309 309 310 311 312 312 312 312 311 310 308 307 305 303 301
353 12 26 36 40 42 40 34 19 359 343 335 332 330 329 326 325 324 323 323 324 325 325 324 324 322 320 318 318 318 316 316 315 315 314 314 315 316 318 319 321 323 324 324 323 321 320 320 319 317 315 313 311 311 312 313 313 314 314 314 312 311 310 309 307 305 304 304 303
35 45 48 47 45 39 30 18 5 353 345 339 335 333 330 328 329 329 329 329 330 328 325 323 321 319 318 317 317 318 317 315 315 315 314 315 316 318 320 322 323 324 325 326 324 322 321 320 320 318 315 313 312 313 314 315 316 316 315 314 312 311 310 310 308 307 307 306 306
50 51 47 40 33 24 14 4 357 350 344 341 338 336 334 334 335 334 333 331 330 327 324 322 321 319 317 316 316 316 315 314 313 313 314 316 318 321 323 325 326 327 328 328 326 324 322 321 320 317 314 313 314 315 316 316 317 317 316 314 313 312 312 311 310 309 308 306 305
55 43 33 25 20 14 9 4 359 353 348 344 343 342 341 339 336 332 330 328 327 326 324 322 320 318 315 314 314 314 314 312 311 312 315 318 322 325 328 329 330 330 331 330 328 325 324 323 321 317 315 315 315 316 316 317 317 316 315 314 313 313 312 311 310 308 305 304 302
32 21 18 18 16 14 11 7 2 356 350 346 343 341 338 333 329 326 324 325 325 325 323 321 318 316 314 313 313 314 314 312 311 314 318 323 327 331 333 333 333 333 332 332 329 327 325 324 322 318 316 316 316 316 317 317 316 315 314 313 313 312 311 309 308 306 304 302 300